Regional Weather Roundup
Issued by NWS Upton, NY

Current Version | Previous Version | Text Only | Print | Product List | Glossary On
Versions: 1 2 3 4 5 6 7 8 9 10 11 12 13 14 15 16 17 18 19 20 21 22 23 24 25 26 27 28 29 30 31 32 33 34 35 36 37 38 39 40 41 42 43 44 45 46 47 48 49 50
000 ASUS41 KOKX 211305 RWROKX REGIONAL WEATHER ROUNDUP NATIONAL WEATHER SERVICE NEW YORK NY 800 AM EST SUN DEC 21 2014 NOTE: "FAIR" INDICATES FEW OR NO CLOUDS BELOW 12,000 FEET WITH NO SIGNIFICANT WEATHER AND/OR OBSTRUCTIONS TO VISIBILITY. NYZ071-072-176-178-NJZ106-104-211400- NEW YORK CITY METRO AREA CITY SKY/WX TMP DP RH WIND PRES REMARKS CENTRAL PARK CLOUDY 31 24 75 CALM 30.32R LAGUARDIA APRT CLOUDY 32 25 75 N6 30.31R WCI 26 KENNEDY INTL CLOUDY 34 24 67 N6 30.31S WCI 29 NEWARK/LIBERTY CLOUDY 32 26 78 N8 30.31R WCI 25 BRNX BOT. GARD N/A N/A N/A N/A NW6 30.31R TETERBORO CLOUDY 32 24 72 NW6 30.30S WCI 26 $$ NYZ177-179-078>081-211400- LONG ISLAND NEW YORK CITY SKY/WX TMP DP RH WIND PRES REMARKS FARMINGDALE CLOUDY 33 26 75 NW5 30.30R WCI 29 ISLIP CLOUDY 33 26 75 W8 30.28R WCI 26 SHIRLEY CLOUDY 34 30 85 W5 30.29R WCI 30 WESTHAMPTON CLOUDY 34 31 88 NW5 30.29R FOG WCI 30 MONTAUK POINT N/A 40 37 89 NE8G16 30.25S WCI 34 $$ NYZ052-065-067-211400- HUDSON VALLEY CITY SKY/WX TMP DP RH WIND PRES REMARKS WHITE PLAINS CLOUDY 30 24 78 N6 30.27S WCI 24 NEWBURGH CLOUDY 28 27 93 CALM 30.30S FOG MONTGOMERY CLOUDY 29 25 85 NE5 30.29S WCI 24 POUGHKEEPSIE CLOUDY 30 24 78 N5 30.31S WCI 25 ALBANY FLURRIES 27 20 75 CALM 30.34R $$ NJZ001-105-106-008-010-013-015-019>022-104-211400- NEW JERSEY CITY SKY/WX TMP DP RH WIND PRES REMARKS NEWARK/LIBERTY CLOUDY 32 26 78 N8 30.31R WCI 25 TETERBORO CLOUDY 32 24 72 NW6 30.30S WCI 26 CALDWELL CLOUDY 30 24 78 CALM 30.30S MORRISTOWN CLOUDY 32 27 80 N5 30.30S WCI 27 SOMERVILLE CLOUDY 32 23 69 N5 30.29S WCI 27 SUSSEX CLOUDY 29 25 85 NE5 30.29S WCI 24 ANDOVER N/A 28 25 88 CALM 30.28S TRENTON CLOUDY 30 21 69 W3 30.30S MILLVILLE CLOUDY 31 26 82 CALM 30.33R ATLANTIC CITY CLOUDY 29 23 78 CALM 30.33R WRIGHTSTOWN CLOUDY 30 23 74 W3 30.29R TOMS RIVER PTCLDY 25 21 86 CALM 30.32S BELMAR CLOUDY 30 19 64 W3 30.29F $$ PAZ047>061-062-071-211400- EASTERN PENNSYLVANIA CITY SKY/WX TMP DP RH WIND PRES REMARKS PHILADELPHIA MOCLDY 32 21 64 NW5 30.34R WCI 27 ALLENTOWN CLOUDY 30 20 66 NW3 30.31R SCRANTON CLOUDY 29 20 69 NW5 30.28R WCI 24 $$ CTZ002-004>006-009-010-012-RIZ004-006-007-MAZ004-011-015-211400- SOUTHERN NEW ENGLAND IN CT CITY SKY/WX TMP DP RH WIND PRES REMARKS BRADLEY INTL CLOUDY 31 28 89 N7 30.29S FOG WCI 24 HARTFORD LGT SNOW 31 29 92 VRB5 30.30S FOG WCI 26 DANBURY CLOUDY 30 24 78 CALM 30.29R WTRBRY/OXFORD LGT SNOW 30 23 74 NE6 30.26S FOG WCI 24 BRIDGEPORT CLOUDY 34 30 85 N6 30.29S WCI 29 MERIDEN LGT SNOW 32 28 85 N7 30.30R FOG WCI 26 NEW HAVEN LGT SNOW 35 30 82 N8 30.29R WCI 29 CHESTER MIX PCPN 32 32 100 N7 30.27R WCI 26 GROTON CLOUDY 33 32 96 N9 30.26S WCI 25 WILLIMANTIC CLOUDY 32 29 88 NE6 30.28S FOG WCI 26 IN RI CITY SKY/WX TMP DP RH WIND PRES REMARKS PROVIDENCE DRIZZLE 32 31 96 N12 30.29R FOG WCI 23 BLOCK ISLAND CLOUDY 39 34 81 NE12G18 30.24S WCI 32 WESTERLY CLOUDY 36 33 89 NE8 30.27S WCI 30 IN MA CITY SKY/WX TMP DP RH WIND PRES REMARKS BOSTON CLOUDY 30 26 85 N10 30.32R WCI 21 WORCESTER CLOUDY 26 25 96 NE7 30.26S WCI 18 WESTFIELD CLOUDY 31 28 89 N8 30.30R FOG WCI 23 PROVINCETOWN CLOUDY 41 34 75 NE13 30.29S NANTUCKET MOCLDY 40 35 83 NE12 30.25S WCI 33 $$ ANZ330-335-338-340-345-350-353-355-211400- COASTAL MARINE OBSERVATIONS STATION/POSITION TIME SKY/WX TEMP WIND PRES VSBY WAVE AIR SEA DIR/SP/G HT/PER (UTC) (F) (DEG/KT/KT) (MB) (MI) (FT/S) NY HARB ENTRANCE 1300 35 48 300/ 8/ 10 1026.1 1/11 4S FIRE IS 1300 46 N/A 1/10 20S FIRE ISLAND 1200 37 49 1025.6 1/ 5 23SW MTP 1300 N/A 3/ 5 HUDSON CANYON 1300 40 55 310/ 8/ 12 1024.8 EXECUTION ROCKS 1300 33 41 320/ 8/ 10 N/A WESTERN LI SOUND 1300 33 330/ 6/ 8 N/A 0 CENTRAL LI SOUND 1200 33 44 10/ 8/ 10 N/A 1 EASTERN LI SOUND NOT AVBL ROBBINS REEF 1300 31 CALM 1025.0 $$ >>>>>>>>>>>>>>>>>>>>>>>>>>>> KEY <<<<<<<<<<<<<<<<<<<<<<<<<<< > < > SKY/WX - SKY CONDITION/PRESENT WEATHER < > TMP - TEMPERATURE IN FAHRENHEIT < > DP - DEWPOINT IN FAHRENHEIT < > RH - RELATIVE HUMIDITY IN PERCENT < > WIND - DIRECTION AND SPEED IN MPH < > PRES - MEAN SEA LEVEL PRESSURE IN INCHES OF HG < > WCI - WIND CHILL INDEX < > VSB - VISIBILITY IN MILES < > HX - HEAT INDEX < > TC - TEMPERATURE IN CELSIUS < > VRB - VARIABLE WIND DIRECTION < > < >>>>>>>>>>>>>>>>>>>>>>>>>>>> KEY <<<<<<<<<<<<<<<<<<<<<<<<<<<

USA.gov is the U.S. government's official web portal to all federal, state and local government web resources and services.